Terminal Aerodrome Forecast
Issued by NWS

Home | Current Version | Previous Version | Graphics & Text | Print | Product List | Glossary On
Versions: 1 2 3 4 5 6 7 8 9 10 11 12 13 14 15 16 17 18 19 20
000
FTUS43 KTOP 201017 AAA
TAFMHK
TAF AMD
KMHK 201017Z 2010/2106 21006KT P6SM BKN010
     FM210100 12004KT 6SM BR BKN008=

USA.gov is the U.S. government's official web portal to all federal, state and local government web resources and services.